CW5466 Weather Reports


time (UTC)temp
F
wind
direction
speed
knots
gust
knots
rain 1hr
in
rain 24hr
in
rain mn
in
humidity
%
barometer
mb
20260906174552 96 126 3.5 7.8 0.00 0.00 0.00 49 1014.9
20260906173050 95 146 1.7 7.8 0.00 0.00 0.00 52 1015.1
20260906171606 94 215 1.7 6.1 0.00 0.00 0.00 53 1015.4
20260906170106 93 140 3.5 7.8 0.00 0.00 0.00 54 1015.6
20260906164554 93 147 3.5 10.4 0.00 0.00 0.00 55 1015.8
20260906163052 92 133 4.3 8.7 0.00 0.00 0.00 56 1015.9
20260906161554 91 159 5.2 8.7 0.00 0.00 0.00 58 1015.9
20260906160054 91 140 4.3 7.8 0.00 0.00 0.00 60 1016.0
20260906154547 91 131 4.3 7.0 0.00 0.00 0.00 61 1016.0
20260906153054 89 226 4.3 8.7 0.00 0.00 0.00 63 1015.8
20260906151555 87 160 4.3 7.8 0.00 0.00 0.00 65 1015.9
20260906150053 86 143 5.2 8.7 0.00 0.00 0.00 68 1015.5
20260906144606 85 148 3.5 8.7 0.00 0.00 0.00 72 1015.5
20260906143107 84 117 5.2 9.6 0.00 0.00 0.00 73 1015.7
20260906141552 82 141 6.1 9.6 0.00 0.00 0.00 75 1015.8
20260906140048 81 142 5.2 8.7 0.00 0.00 0.00 78 1015.8
20260906134545 79 115 3.5 7.8 0.00 0.00 0.00 81 1015.9
20260906133105 78 115 3.5 6.1 0.00 0.00 0.00 84 1015.7
20260906131552 77 111 2.6 5.2 0.00 0.00 0.00 85 1015.7
20260906124548 75 98 1.7 3.5 0.00 0.00 0.00 87 1015.4
20260906123052 74 101 0.9 3.5 0.00 0.00 0.00 89 1015.1
20260906121549 73 109 0.9 2.6 0.00 0.00 0.00 90 1015.1
20260906120048 72 80 1.7 3.5 0.00 0.00 0.00 91 1014.8
20260906114558 71 0 0.0 0.0 0.00 0.00 0.00 91 1014.7
20260906113052 72 0 0.0 0.0 0.00 0.00 0.00 91 1014.6
20260906111545 72 0 0.0 0.0 0.00 0.00 0.00 90 1014.5
20260906110053 72 0 0.0 0.0 0.00 0.00 0.00 90 1014.5
20260906104558 72 0 0.0 0.9 0.00 0.00 0.00 90 1014.4
20260906103051 72 78 0.0 0.0 0.00 0.00 0.00 90 1014.4
20260906101550 73 0 0.0 0.0 0.00 0.00 0.00 89 1014.4
20260906100053 73 0 0.0 0.0 0.00 0.00 0.00 88 1014.3
20260906094608 73 0 0.0 0.9 0.00 0.00 0.00 88 1014.3
20260906093122 73 78 0.0 0.9 0.00 0.00 0.00 88 1014.4
20260906091546 74 0 0.0 0.9 0.00 0.00 0.00 87 1014.3
20260906090058 74 0 0.0 0.9 0.00 0.00 0.00 87 1014.2
20260906084553 74 0 0.0 0.9 0.00 0.00 0.00 86 1014.0
20260906083050 74 0 0.0 0.9 0.00 0.00 0.00 86 1013.9
20260906081548 74 0 0.0 0.0 0.00 0.00 0.00 85 1013.7
20260906080059 75 0 0.0 0.9 0.00 0.00 0.00 84 1013.6
20260906074554 75 0 0.0 0.0 0.00 0.00 0.00 84 1013.6
20260906073054 76 0 0.0 0.9 0.00 0.00 0.00 82 1013.8
20260906071549 76 87 0.0 1.7 0.00 0.00 0.00 82 1013.8
20260906070053 76 0 0.0 0.0 0.00 0.00 0.00 81 1013.8
20260906064551 76 0 0.0 0.0 0.00 0.00 0.00 81 1014.0
20260906063053 77 0 0.0 0.0 0.00 0.00 0.00 80 1014.1
20260906061552 77 0 0.0 0.0 0.00 0.00 0.00 79 1014.1
20260906060049 77 0 0.0 0.0 0.00 0.00 0.00 78 1014.1
20260906054608 77 0 0.0 0.9 0.00 0.00 0.00 77 1014.1
20260906053053 77 82 0.9 1.7 0.00 0.00 0.00 76 1014.1
20260906051602 78 82 0.9 2.6 0.00 0.00 0.00 75 1014.0
20260906050057 78 80 0.9 1.7 0.00 0.00 0.00 75 1014.1
20260906044553 78 75 0.9 3.5 0.00 0.00 0.00 74 1014.1
20260906043051 79 65 0.9 1.7 0.00 0.00 0.00 73 1014.0
20260906041551 79 0 0.0 0.0 0.00 0.00 0.00 74 1013.9
20260906040059 79 0 0.0 0.0 0.00 0.00 0.00 73 1013.9
20260906034554 79 0 0.0 0.0 0.00 0.00 0.00 73 1013.7
20260906033051 80 0 0.0 0.0 0.00 0.00 0.00 72 1013.4
20260906031544 80 0 0.0 0.0 0.00 0.00 0.00 72 1013.3
20260906030052 80 0 0.0 0.0 0.00 0.00 0.00 73 1013.3
20260906024558 80 0 0.0 0.9 0.00 0.00 0.00 72 1013.2
20260906023044 80 0 0.0 0.0 0.00 0.00 0.00 72 1013.0
20260906021554 81 0 0.0 0.9 0.00 0.00 0.00 70 1012.8
20260906020053 82 0 0.0 1.7 0.00 0.00 0.00 67 1012.6
20260906014632 84 86 0.9 1.7 0.00 0.00 0.00 65 1012.4
20260906013100 84 84 1.7 1.7 0.00 0.00 0.00 64 1012.1
20260906011558 85 90 1.7 1.7 0.00 0.00 0.00 63 1012.1
20260906010055 86 82 1.7 1.7 0.00 0.00 0.00 62 1012.1
20260906004544 88 83 0.9 1.7 0.00 0.00 0.00 59 1012.2
20260906003110 90 84 0.9 1.7 0.00 0.00 0.00 56 1012.3
20260906001552 91 92 0.9 1.7 0.00 0.00 0.00 55 1012.4
20260906000053 92 111 0.9 1.7 0.00 0.00 0.00 55 1012.4
20260905234609 93 148 0.0 2.6 0.00 0.00 0.00 53 1012.4
20260905233053 92 139 0.9 2.6 0.00 0.00 0.00 52 1012.3
20260905231551 93 157 0.9 2.6 0.00 0.00 0.00 50 1012.1
20260905230055 94 154 1.7 5.2 0.00 0.00 0.00 49 1012.1
20260905224551 95 144 0.9 3.5 0.00 0.00 0.00 50 1012.1
20260905223052 96 159 2.6 5.2 0.00 0.00 0.00 47 1012.1
20260905221612 96 126 3.5 7.0 0.00 0.00 0.00 45 1012.1
20260905220052 97 119 2.6 7.8 0.00 0.00 0.00 47 1012.1
20260905214555 97 110 3.5 9.6 0.00 0.00 0.00 44 1012.1
20260905213104 98 36 4.3 10.4 0.00 0.00 0.00 41 1012.2
20260905211559 99 227 1.7 5.2 0.00 0.00 0.00 43 1012.5
20260905210053 98 223 2.6 7.8 0.00 0.00 0.00 43 1012.8
20260905204549 98 142 2.6 6.1 0.00 0.00 0.00 45 1013.0
20260905203055 97 146 1.7 4.3 0.00 0.00 0.00 46 1013.2
20260905201612 98 147 0.0 4.3 0.00 0.00 0.00 44 1013.3
20260905200056 98 292 0.9 2.6 0.00 0.00 0.00 43 1013.5
20260905194550 96 106 0.0 2.6 0.00 0.00 0.00 46 1013.6
20260905193110 98 139 1.7 6.1 0.00 0.00 0.00 45 1013.8
20260905191552 98 108 3.5 6.1 0.00 0.00 0.00 43 1013.9
20260905190051 98 159 2.6 7.0 0.00 0.00 0.00 43 1014.1
20260905184552 98 96 4.3 7.8 0.00 0.00 0.00 44 1014.3
20260905183054 98 145 0.9 3.5 0.00 0.00 0.00 44 1014.3
20260905181606 98 247 0.0 5.2 0.00 0.00 0.00 43 1014.4
20260905180043 98 148 0.9 6.1 0.00 0.00 0.00 45 1014.5